Location: Cuiry
(49.3858°N, 3.7708°E)
Time: 01:40:55
(UTC+00:00)

UNK - Pass Details

Date: 18 April 2026
Orbit: 653 x 673 km, 98.4° (Epoch: 19 May)

Event Time Altitude Azimuth Distance (km) Brightness Sun altitude
Rises 03:04:02 0° 127° (SE) 3,013 7.3 -15.6°
Reaches altitude 10° 03:06:36 10° 114° (ESE) 2,102 6.6 -15.3°
Maximum altitude 03:10:13 24° 61° (ENE) 1,401 6.3 -14.8°
Drops below altitude 10° 03:13:51 10° 9° (N) 2,106 7.0 -14.4°
Sets 03:16:26 0° 356° (N) 3,021 7.6 -14.0°
